Tracking 18840 objects as of 19-November-2017
HD Live streaming from Space Station
objects crossing your sky now

FENGYUN 1C DEB

Track FENGYUN 1C DEB now!
10-day predictions


NORAD ID: 31097
Int'l Code: 1999-025BGT
Perigee: 823.8 km
Apogee: 853.5 km
Inclination: 98.9 °
Period: 101.5 minutes
Semi major axis: 7209 km
RCS: 0.0109 m2 (small)
Launch date: May 10, 1999
Source: People's Republic of China (PRC)
Launch site: Taiyaun Space Center, China (TSC)

Note: This is SATELLITE DEBRIS
aabbcc
Your satellite tracking list
Your tracking list is empty




NASA's NSSDC Master Catalog

Two Line Element Set (TLE):
1 31097U 99025BGT 17321.07488730 +.00001109 +00000-0 +56072-3 0  9990
2 31097 098.9459 006.8257 0020601 155.5022 224.9768 14.18184214550656
Source of the keplerian elements: AFSPC